Weather History for PAGY - January, 2013

Change the Weather History Date:

Friday, January 25, 2013

  Actual Average Record
Temperature  
Mean Temperature 36 °F -  
Max Temperature 41 °F 27 °F 46 °F (2015)
Min Temperature 32 °F 20 °F -5 °F (1984)
Degree Days  
Heating Degree Days 28    
Moisture  
Dew Point 31 °F    
Average Humidity 80    
Maximum Humidity 92    
Minimum Humidity 67    
Precipitation  
Precipitation 0.04 in - - ()
Sea Level Pressure  
Sea Level Pressure 29.40 in    
Wind  
Wind Speed 6 mph (South)    
Max Wind Speed 26 mph    
Max Gust Speed 36 mph    
Visibility 8 miles    
Events Snow    
Averages and records for this station are not official NWS values.
T = Trace of Precipitation, MM = Missing Value Source: NWS Daily Summary

Daily Weather History Graph

Daily Weather History Graph

Search for Another Location

Airport or City:

Trip Planner

Search our weather history database for the weather conditions in past years. The results will help you decide how hot, cold, wet, or windy it might be!

Date:

Astronomy

Jan. 25, 2013 Rise Set
Actual Time 8:26 AM AKST 4:01 PM AKST
Civil Twilight 7:38 AM AKST 4:50 PM AKST
Nautical Twilight 6:47 AM AKST 5:41 PM AKST
Astronomical Twilight 5:58 AM AKST 6:29 PM AKST
Moon 3:07 PM AKST (1/25) 7:12 AM AKST (1/25)
Length of Visible Light 9h 12m
Length of Day
7h 35m
Waxing Gibbous, 98% of the Moon is Illuminated
Jan 25
Waxing Gibbous
Jan 26
Full
Feb 3
Last Quarter
Feb 9
New
Feb 17
First Quarter

Hourly Weather History & Observations

Time (AKST) Temp. Windchill Dew Point Humidity Pressure Visibility Wind Dir Wind Speed Gust Speed Precip Events Conditions
12:53 AM 35.1 °F - 30.9 °F 85% 29.39 in 10.0 mi Calm Calm - N/A   Overcast
1:53 AM 33.1 °F 26.9 °F 28.9 °F 85% 29.38 in 10.0 mi Variable 6.9 mph - N/A   Mostly Cloudy
3:53 AM 36.0 °F 33.3 °F 26.1 °F 67% 29.38 in 10.0 mi Variable 3.5 mph - N/A   Overcast
4:53 AM 36.0 °F 31.1 °F 26.1 °F 67% 29.38 in 10.0 mi NNE 5.8 mph - N/A   Overcast
5:53 AM 36.0 °F - 27.0 °F 70% 29.38 in 10.0 mi Calm Calm - N/A   Overcast
6:53 AM 34.0 °F - 28.9 °F 82% 29.38 in 10.0 mi Calm Calm - N/A   Overcast
7:53 AM 34.0 °F - 28.9 °F 82% 29.40 in 10.0 mi Calm Calm - N/A   Overcast
8:11 AM 33.8 °F - 28.4 °F 81% 29.41 in 6.0 mi Calm Calm - 0.00 in Snow Light Snow
8:29 AM 33.8 °F - 30.2 °F 87% 29.41 in 2.5 mi Calm Calm - 0.00 in Snow Light Snow
8:33 AM 33.8 °F - 30.2 °F 87% 29.41 in 2.0 mi Calm Calm - 0.00 in Snow Light Snow
8:38 AM 33.8 °F - 28.4 °F 81% 29.40 in 1.8 mi Calm Calm - 0.00 in Snow Light Snow
8:45 AM 33.8 °F - 30.2 °F 87% 29.41 in 1.8 mi Calm Calm - 0.01 in Snow Light Snow
8:53 AM 33.1 °F 30.0 °F 30.0 °F 89% 29.41 in 1.8 mi NNE 3.5 mph - 0.01 in Snow Light Snow
9:15 AM 33.8 °F 29.6 °F 30.2 °F 87% 29.41 in 1.2 mi ENE 4.6 mph - 0.01 in Snow Light Snow
9:40 AM 33.8 °F 30.8 °F 30.2 °F 87% 29.41 in 2.0 mi NNE 3.5 mph - 0.02 in Snow Light Snow
9:53 AM 32.0 °F - 30.0 °F 92% 29.42 in 3.0 mi Calm Calm - 0.02 in Snow Light Snow
10:14 AM 33.8 °F - 30.2 °F 87% 29.41 in 2.5 mi Calm Calm - 0.00 in Snow Light Snow
10:31 AM 33.8 °F - 30.2 °F 87% 29.41 in 5.0 mi Calm Calm - 0.00 in Snow Light Snow
10:40 AM 33.8 °F 30.8 °F 30.2 °F 87% 29.40 in 9.0 mi NNE 3.5 mph - 0.00 in   Overcast
10:51 AM 33.8 °F 29.6 °F 30.2 °F 87% 29.40 in 10.0 mi NNE 4.6 mph - 0.00 in   Overcast
10:53 AM 33.1 °F 28.7 °F 30.0 °F 89% 29.41 in 10.0 mi NNE 4.6 mph - 0.00 in   Overcast
11:53 AM 37.9 °F 30.5 °F 34.0 °F 86% 29.39 in 10.0 mi SSW 11.5 mph - N/A   Overcast
12:53 PM 39.9 °F 31.4 °F 33.1 °F 77% 29.39 in 10.0 mi SSW 16.1 mph 25.3 mph N/A   Overcast
1:53 PM 39.9 °F 30.8 °F 33.1 °F 77% 29.38 in 10.0 mi SSW 18.4 mph 28.8 mph 0.01 in   Overcast
2:53 PM 41.0 °F 31.4 °F 33.1 °F 73% 29.38 in 10.0 mi SSW 21.9 mph 29.9 mph N/A   Mostly Cloudy
3:53 PM 41.0 °F 32.5 °F 33.1 °F 73% 29.39 in 10.0 mi SSW 17.3 mph 25.3 mph N/A   Overcast
4:53 PM 41.0 °F 32.5 °F 33.1 °F 73% 29.39 in 10.0 mi SSW 17.3 mph 27.6 mph N/A   Mostly Cloudy
5:53 PM 41.0 °F 31.6 °F 33.1 °F 73% 29.39 in 10.0 mi SSW 20.7 mph 28.8 mph N/A   Overcast
6:53 PM 41.0 °F 31.4 °F 33.1 °F 73% 29.39 in 10.0 mi SSW 21.9 mph 31.1 mph N/A   Overcast
7:53 PM 41.0 °F 31.9 °F 33.1 °F 73% 29.39 in 10.0 mi SSW 19.6 mph 31.1 mph N/A   Overcast
8:53 PM 41.0 °F 30.9 °F 34.0 °F 76% 29.39 in 10.0 mi SSW 24.2 mph 32.2 mph N/A   Overcast
9:53 PM 41.0 °F 30.5 °F 34.0 °F 76% 29.39 in 10.0 mi SSW 26.5 mph 35.7 mph N/A   Mostly Cloudy
10:53 PM 41.0 °F 31.6 °F 33.1 °F 73% 29.40 in 10.0 mi South 20.7 mph 27.6 mph N/A   Clear
11:53 PM 41.0 °F 32.8 °F 34.0 °F 76% 29.41 in 10.0 mi South 16.1 mph 28.8 mph N/A   Mostly Cloudy